Weather in Krivets

Russia / Lipetsk Oblast     52°52′25″N   40°02′51″E
temp.,
°C
wind,
m/s
gust,
m/s
humid.,
%
clouds,
%
prec.,
mm/h
press.,
hPa
HPBL,
m
11 april, sun
sun1100:00+4n34635 0.0 102769
03:00+3n36700 0.0 1027110
06:00+2nne367314 0.0 1028109
09:00+7nne4754100 0.0 1029389
12:00+10nne5638100 0.0 1029895
15:00+11ne6737100 0.0 1029964
18:00+10ne5114698 0.0 1029706
21:00+8ne51155100 0.0 1030353
12 april, mon
mon1200:00+7ne5116585 0.0 1029419
03:00+5ne4982100 0.0 1029295
06:00+5ne41092100 0.0 1029292
09:00+8ene5884100 0.0 1028352
12:00+14e576399 0.0 1027578
15:00+19e574886 0.0 10261015
18:00+19e37485 0.0 1025123
21:00+14se513605 0.0 1026257
13 april, tue
tue1300:00+12se4126541 0.0 1026210
03:00+10se4126765 0.0 1026209
06:00+9ese4116897 0.0 1026180
09:00+13se5953100 0.0 1026324
12:00+19sse583723 0.0 10251178
15:00+21sse683298 0.0 10241897
18:00+19se593866 0.0 1023293
21:00+15se514495 0.0 1024315
14 april, wed
wed1400:00+13se5135672 0.0 1024285
03:00+10se386448 0.0 1023149
06:00+9ese376770 0.0 1023115
09:00+14se58475 0.0 1023393
12:00+19se683174 0.0 10211340
15:00+20se6828100 0.0 10201979
18:00+18se473778 0.0 1019272
21:00+14ese345066 0.0 101955
15 april, thu
thu1500:00+12ese366099 0.0 101888
03:00+10ese3364100 0.0 101842
06:00+9e357090 0.0 101784
09:00+14ese4653100 0.0 1016338
12:00+19ese5736100 0.0 10141101
15:00+20ese7835100 0.0 10122515
18:00+17sse584025 0.0 1012682
21:00+13ssw477186 0.3 1012279